#timestamp,LO_Frequency,Hit,StdDev 
1642730415.4,286047000.5,N
1642730435.2,286046999.7,N
1642730455.0,286047002.6,Y
1642730455.9,286047002.6,P
1642730475.8,286047000.9,N
1642730495.6,286047001.1,N
1642730515.4,286047001.1,N
1642730535.3,286046999.0,N
1642730555.1,286046999.6,N
1642730575.9,286046996.5,Y
1642730595.7,286046997.1,P
1642730615.5,286046997.1,N
1642730635.4,286046996.8,N
1642730655.2,286046999.0,N
1642730675.1,286046998.3,N
1642730676.0,286046998.3,N
1642730695.8,286047000.6,N
1642730715.6,286047001.1,N
1642730735.5,286046998.4,N
1642730755.3,286046999.0,N
1642730775.1,286046998.4,N
1642730795.9,286047000.8,N
1642730815.7,286046999.9,N
1642730835.6,286047002.2,N
1642730855.4,286046998.2,N
1642730875.2,286046998.1,N
1642730895.1,286047001.2,N
1642730896.0,286047001.2,N
1642730915.8,286046998.9,N
1642730935.6,286046998.6,N
1642730955.5,286047000.8,N
1642730975.3,286046999.8,N
1642730995.2,286047000.9,N
1642731015.9,286047002.6,N
1642731035.7,286047000.0,N
1642731055.6,286047000.5,N
1642731075.4,286047000.8,N
1642731095.3,286047000.4,N
1642731115.1,286047000.0,N
1642731135.9,286046999.7,N
1642731155.7,286047002.7,N
1642731175.5,286047002.7,N
1642731195.4,286047000.9,N
1642731215.2,286047000.3,N
1642731235.0,286047000.4,N
1642731235.9,286047000.4,N
1642731255.8,286047000.5,N
1642731275.6,286047000.4,N
1642731295.5,286047000.9,N
1642731315.3,286047002.2,N
1642731335.1,286047002.7,N
1642731355.9,286047002.6,N
1642731375.7,286047002.4,N
1642731395.6,286047002.4,N
1642731415.4,286047000.5,N
1642731435.2,286047000.0,N
1642731455.1,286047000.0,N
1642731456.0,286047000.0,N
1642731475.8,286047000.0,N
1642731495.6,286046999.9,N
1642731515.5,286046999.9,N
1642731535.3,286047000.5,N
1642731555.2,286047000.3,N
1642731575.0,286046999.9,N
1642731575.9,286046999.9,N
1642731595.7,286047002.6,N
1642731615.6,286047000.2,N
1642731635.4,286046998.1,N
1642731655.3,286047000.5,N
1642731675.1,286046999.9,N
1642731676.0,286046999.9,N
1642731695.8,286047000.9,N
1642731715.7,286047000.7,N
1642731735.5,286047000.3,N
1642731755.4,286047000.5,N
1642731775.2,286047000.6,N
1642731795.0,286047001.0,N
1642731795.9,286047001.0,N
1642731815.8,286047000.8,N
1642731835.6,286047000.5,N
1642731855.5,286047001.2,N
1642731875.3,286047001.2,N
1642731895.1,286046999.8,N
1642731915.9,286047001.7,N
1642731935.7,286047002.3,Y
1642731955.5,286047000.9,P
1642731975.4,286046996.5,P
1642731995.2,286046995.3,N
1642732015.1,286046995.3,N
1642732016.0,286046995.3,N
1642732035.8,286046996.1,N
1642732055.6,286046995.0,N
1642732075.5,286046996.9,N
1642732095.3,286046996.5,N
1642732115.1,286047000.6,N
1642732135.9,286047000.8,N
1642732155.7,286046998.7,N
1642732175.6,286046998.2,N
1642732195.4,286047001.0,N
1642732215.2,286047000.7,N
1642732235.1,286046998.6,N
1642732236.0,286046998.6,N
1642732255.8,286047000.0,N
1642732275.6,286047000.7,N
1642732295.5,286047002.6,N
1642732315.3,286047000.2,N
1642732335.2,286047002.4,N
1642732355.9,286047002.7,N
1642732375.7,286047000.7,N
1642732395.6,286047001.0,N
1642732415.4,286047000.4,N
1642732435.3,286047002.6,N
1642732455.1,286047000.3,N
1642732456.0,286047000.3,N
1642732475.8,286047002.0,N
1642732495.7,286047002.2,N
1642732515.5,286046999.8,N
1642732535.3,286047001.0,N
1642732555.2,286046999.0,N
1642732575.0,286046998.8,N
1642732575.9,286046998.8,N
1642732595.8,286046998.5,N
1642732615.6,286046998.3,N
1642732635.4,286047000.0,N
1642732655.3,286047000.6,N
1642732705.1,286047002.1,E
1642732715.1,286046999.7,N
1642732716.0,286046999.7,P
1642732735.8,286047000.6,P
1642732755.6,286046998.5,Y
1642732775.5,286047000.7,P
1642732795.3,286047000.6,N
1642732815.2,286047000.1,N
1642732835.9,286047001.0,Y
1642732855.7,286046999.0,P
1642732875.6,286046998.3,N
1642732895.4,286047000.8,N
1642732915.3,286047001.1,N
1642732935.1,286047000.5,N
1642732936.0,286047000.5,N
1642732955.8,286047000.5,N
1642732975.7,286047000.4,N
1642732995.5,286047001.0,N
1642733015.3,286046999.7,N
1642733035.2,286047000.5,N
1642733055.0,286046999.0,N
1642733055.9,286046999.0,N
1642733075.8,286047000.8,N
1642733095.6,286047000.1,N
1642733115.4,286046998.2,N
1642733135.3,286047000.7,N
1642733155.1,286046998.9,N
1642733175.8,286047000.0,N
1642733195.7,286046998.5,N
1642733215.5,286046998.5,N
1642733235.4,286046999.0,N
1642733255.2,286046998.8,N
1642733275.0,286046996.8,Y
1642733275.9,286046996.8,P
1642733295.8,286046999.0,N
1642733315.6,286046998.7,N
1642733335.4,286046998.3,N
1642733355.3,286047000.7,N
1642733375.1,286047000.8,N
1642733395.9,286047000.8,N
1642733415.7,286046998.3,N
1642733435.5,286046996.5,N
1642733455.4,286046998.4,N
1642733475.2,286046999.2,N
1642733495.1,286046999.2,N
1642733496.0,286046999.2,N
1642733515.8,286047000.7,N
1642733535.6,286046999.7,N
1642733555.5,286047000.4,N
1642733575.3,286047000.5,N
1642733595.1,286046999.9,N
1642733615.9,286047001.4,N
1642733635.7,286047001.9,N
1642733655.6,286047005.5,Y
1642733675.4,286047003.9,P
1642733695.2,286047001.8,N
1642733715.1,286047002.1,N
1642733716.0,286047002.1,N
1642733735.8,286047001.6,N
1642733755.7,286047002.1,N
1642733775.5,286047001.0,N
1642733795.3,286046999.8,N
1642733815.2,286047002.2,N
1642733835.0,286047001.5,N
1642733835.9,286047001.5,N
1642733855.8,286047001.5,N
1642733875.6,286047000.9,N
1642733895.4,286047002.3,N
1642733915.3,286046999.7,N
1642733935.1,286047002.4,N
1642733955.8,286047002.1,N
1642733975.7,286047001.7,N
1642733995.5,286047002.0,N
